Location: Unspecified
(48.1170°N, 0.0000°E)
Time: 00:30:33
(UTC+00:00)

JY1SAT - Pass Details

Date: 19 September 2019
Orbit: 572 x 591 km, 97.7° (Epoch: 15 October)

Event Time Altitude Azimuth Distance (km) Brightness Sun altitude
Exits shadow 22:22:25 14° 329° (NNW) 1,675 ? -36.7°
Drops below altitude 10° 22:22:59 10° 333° (NNW) 1,894 ? -36.8°
Sets 22:25:16 0° 341° (NNW) 2,800 ? -37.0°
